Weather in Tulita

Canada     64°54′05″N   125°34′30″W
temp.,
°C
wind,
m/s
gust,
m/s
humid.,
%
clouds,
%
prec.,
mm/h
press.,
hPa
HPBL,
m
6 may, thu
thu600:00+1ne2399100 0.0 1025105
03:00+1ne2399100 0.0 102588
06:00+1ne2399100 0.0 102596
09:00+1ne2499100 0.0 1024195
12:00+3ene2497100 0.0 1023344
15:00+5e2588100 0.0 1021414
18:00+5e3693100 0.0 1020236
21:00+4e2495100 0.0 1019108
7 may, fri
fri700:00+3e3695100 0.0 1017136
03:00+2e2297100 0.0 101625
06:00+2ene1198100 0.0 101622
09:00+3ne1197100 0.0 101555
12:00+3wnw1196100 0.0 101693
15:00+4w2293100 0.0 1016288
18:00+5wnw1291100 0.0 1017289
21:00+4wnw1195100 0.0 101723
8 may, sat
sat800:00+2wnw1196100 0.0 101719
03:00+2wnw1196100 0.0 101822
06:00+1wnw1197100 0.0 101823
09:00+2wnw1196100 0.0 101843
12:00+3nnw1191100 0.0 1017148
15:00+4n1188100 0.0 1017265
18:00+4nnw2292100 0.0 101759
21:00+3nw2293100 0.0 101736
9 may, sun
sun900:00+2nw2294100 0.0 101739
03:00+2w2296100 0.1 101651
06:00+2w2397100 0.1 1017110
09:00+1w2499100 0.4 1017249
12:00+1w3598100 0.8 1017312
15:00+2wnw3699100 0.9 1018328
18:00+2wnw3799100 1.9 1019338
21:00+2wnw4897100 0.4 1020455
10 may, mon
mon1000:00+1wnw4898100 0.8 1020437
03:00+1wnw469596 0.1 1021299
06:000wnw359487 0.1 1021166
09:00+2wnw358092 0.0 1022720
12:00+3nw4568100 0.1 10221125
15:00+3nw4567100 0.1 10221091
18:00+3nnw3470100 0.1 1023878
21:00+2n3475100 0.1 1024741